Location: Hamilton
(37.7830°S, 175.2830°E)
Time: 04:42:06
(UTC+13:00)

ISS - Pass Details

Date: 26 January 2019
Orbit: 403 x 411 km, 51.6° (Epoch: 20 February)

Event Time Altitude Azimuth Distance (km) Brightness Sun altitude
Exits shadow 05:35:49 - 354° (N) 2,040 -0.6 -9.3°
Reaches altitude 10° 05:37:38 10° 12° (NNE) 1,477 -1.2 -9.0°
Maximum altitude 05:39:44 16° 51° (NE) 1,179 -1.2 -8.7°
Drops below altitude 10° 05:41:51 10° 90° (E) 1,487 0.0 -8.3°
Sets 05:44:31 0° 113° (ESE) 2,355 2.3 -7.9°
